Погода в Буранном

Россия / Оренбургская область     50°58′38″N   54°27′55″E
темп.,
°C
ветер,
м/с
пор.,
м/с
влажн.,
%
обл.,
%
осадки,
мм/ч
давл.,
гПа
погр.,
м
8 марта, пн
пн823:00−15юз34810 0.0 101743
02:00−14юз479755 0.0 1017136
05:00−12ююз5138777 0.0 1016284
08:00−8ююз91782100 0.0 1013627
11:00−5юз111880100 0.0 1013898
14:00−3юз121886100 0.0 10131143
17:00−2юз111689100 0.2 10121114
20:00−3юз81588100 0.1 1013704
9 марта, вт
вт923:00−3ююз9168799 0.2 1013620
02:00−4юз9178897 0.0 1012576
05:00−5юз8159098 0.1 1012473
08:00−4юз61293100 0.1 1012407
11:00−2юз5894100 0.4 1013392
14:00−1ююз5795100 0.4 1012453
17:000ююз71192100 1.0 1011653
20:00−1ююз61191100 0.1 1008650
10 марта, ср
ср1023:00−2ю71491100 0.1 1007475
02:00−1ююз91596100 0.8 1005803
05:00−9з7149395 1.1 1006367
08:00−13з61196100 0.1 1009252
11:00−11з61093100 0.1 1011382
14:00−10з698998 0.0 1013538
17:00−11з7108999 0.1 1013713
20:00−14з61194100 0.1 1015382
11 марта, чт
чт1123:00−17з51097100 0.1 1016258
02:00−21з47100100 0.1 1017141
05:00−24зсз479993 0.1 1018132
08:00−25зсз479989 0.0 1020129
11:00−22зсз579593 0.1 1022271
14:00−20зсз579346 0.0 1024340
17:00−19зсз579157 0.0 1024413
20:00−24з459767 0.0 102660
12 марта, пт
пт1223:00−26з449834 0.0 102848
02:00−27з349915 0.0 102932
05:00−26з339936 0.0 102929
08:00−26з2310098 0.0 103021
11:00−21з359699 0.0 1031222
14:00−16зсз459197 0.0 1031311
17:00−14зсз459399 0.0 1031321
20:00−18з33100100 0.0 103323